Voltar ao catálogo

STARLINK-5641

AtivoComunicaçõesVLEO
NORAD 55359·PAYLOAD·🇺🇸 United States

Lançado Jan 26, 2023 de Cape Canaveral Space Force Station

Loading…

Próximas Passagens (próximas 24 horas)

TLE

AtualizadoSource: CelesTrak SupGP

Época: Sep 15, 2026, 01:24 UTC

1 55359C 23013AE  26258.05881944  .00029778  00000+0  10788-2 0  2584
2 55359  43.0002 317.3910 0001522 260.6055 135.8931 15.27556649    17

Acompanhe STARLINK-5641 em tempo real com AllMySat

Download on the App Store